TimeEST,TemperatureF,Dew PointF,Humidity,Sea Level PressureIn,VisibilityMPH,Wind Direction,Wind SpeedMPH,Gust SpeedMPH,PrecipitationIn,Events,Conditions,WindDirDegrees,DateUTC
12:13 AM,53.6,48.2,82,30.06,9.0,SW,16.1,23.0,N/A,,Overcast,230,2012-12-03 05:13:00
12:53 AM,54.0,48.0,80,30.05,9.0,SW,12.7,23.0,N/A,,Overcast,230,2012-12-03 05:53:00
1:45 AM,53.6,48.2,82,30.04,9.0,SW,12.7,19.6,N/A,,Mostly Cloudy,230,2012-12-03 06:45:00
1:53 AM,52.0,48.0,86,30.05,9.0,SW,11.5,-,N/A,,Scattered Clouds,230,2012-12-03 06:53:00
2:08 AM,53.6,48.2,82,30.05,8.0,SW,10.4,-,N/A,,Mostly Cloudy,230,2012-12-03 07:08:00
2:24 AM,53.6,48.2,82,30.06,8.0,WSW,13.8,-,N/A,,Overcast,240,2012-12-03 07:24:00
2:53 AM,53.1,48.0,83,30.06,8.0,WSW,12.7,18.4,N/A,,Overcast,250,2012-12-03 07:53:00
3:53 AM,52.0,48.0,86,30.06,7.0,WSW,11.5,19.6,N/A,,Mostly Cloudy,250,2012-12-03 08:53:00
4:00 AM,51.8,48.2,88,30.06,7.0,West,11.5,-,N/A,,Mostly Cloudy,260,2012-12-03 09:00:00
4:17 AM,51.8,46.4,82,30.05,6.0,WSW,9.2,-,N/A,,Haze,250,2012-12-03 09:17:00
4:53 AM,51.1,46.9,86,30.07,6.0,West,12.7,-,N/A,,Mostly Cloudy,270,2012-12-03 09:53:00
5:53 AM,50.0,46.0,86,30.08,5.0,WSW,6.9,-,N/A,,Clear,250,2012-12-03 10:53:00
6:53 AM,46.0,44.1,93,30.11,3.0,West,5.8,-,N/A,,Clear,260,2012-12-03 11:53:00
7:53 AM,46.9,45.0,93,30.11,3.0,SW,4.6,-,N/A,,Clear,230,2012-12-03 12:53:00
8:53 AM,52.0,46.9,83,30.14,6.0,West,5.8,-,N/A,,Haze,260,2012-12-03 13:53:00
9:53 AM,55.4,44.6,67,30.14,8.0,West,12.7,-,N/A,,Clear,280,2012-12-03 14:53:00
10:53 AM,57.9,44.1,60,30.12,10.0,WNW,9.2,20.7,N/A,,Clear,300,2012-12-03 15:53:00
11:53 AM,59.0,42.1,53,30.12,10.0,NW,11.5,16.1,N/A,,Partly Cloudy,310,2012-12-03 16:53:00
12:53 PM,59.0,42.1,53,30.12,10.0,NW,6.9,-,N/A,,Clear,310,2012-12-03 17:53:00
1:53 PM,60.1,41.0,49,30.12,10.0,Variable,4.6,-,N/A,,Clear,0,2012-12-03 18:53:00
2:53 PM,60.1,41.0,49,30.14,10.0,NW,3.5,-,N/A,,Clear,310,2012-12-03 19:53:00
3:53 PM,57.9,41.0,53,30.17,10.0,Calm,Calm,-,N/A,,Clear,0,2012-12-03 20:53:00
4:53 PM,48.9,41.0,74,30.19,10.0,Calm,Calm,-,N/A,,Clear,0,2012-12-03 21:53:00
5:53 PM,44.1,39.9,85,30.21,10.0,Calm,Calm,-,N/A,,Clear,0,2012-12-03 22:53:00
6:53 PM,39.9,37.9,93,30.24,10.0,Calm,Calm,-,N/A,,Clear,0,2012-12-03 23:53:00
7:53 PM,37.0,35.1,93,30.26,10.0,Calm,Calm,-,N/A,,Clear,0,2012-12-04 00:53:00
8:53 PM,36.0,35.1,97,30.27,9.0,Calm,Calm,-,N/A,,Clear,0,2012-12-04 01:53:00
9:53 PM,35.1,33.1,92,30.27,9.0,Calm,Calm,-,N/A,,Clear,0,2012-12-04 02:53:00
10:53 PM,33.1,32.0,96,30.28,6.0,Calm,Calm,-,N/A,,Clear,0,2012-12-04 03:53:00
11:53 PM,33.1,30.9,92,30.29,9.0,Calm,Calm,-,N/A,,Clear,0,2012-12-04 04:53:00